Hollywood, FL

4:30 AM EDT on October 23, 2019 (GMT -0400)
North Perry

Weather History for KHWO - August, 2019

Change the Weather History Date:

Sunday, August 11, 2019

  Actual Average (WUND) Record (WUND)
Temperature  
Mean Temperature 86 °F -  
Max Temperature 95 °F - - (-1)
Min Temperature 77 °F - - (-1)
Cooling Degree Days 21    
Growing Degree Days 36 (Base 50)    
Moisture  
Dew Point 75 °F    
Average Humidity 79    
Maximum Humidity 94    
Minimum Humidity 50    
Precipitation  
Precipitation 1.88 in - - ()
Sea Level Pressure  
Sea Level Pressure 30.01 in    
Wind  
Wind Speed 6 mph (WSW)    
Max Wind Speed 23 mph    
Max Gust Speed 31 mph    
Visibility 8 miles    
Events Fog , Rain , Thunderstorm    
Averages and records for this station are not official NWS values.
T = Trace of Precipitation, MM = Missing Value Source: NWS Daily Summary

Daily Weather History Graph

Daily Weather History Graph

Search for Another Location

Airport or City:

Astronomy

Aug. 11, 2019 Rise Set
Actual Time 6:51 AM EDT 8:00 PM EDT
Civil Twilight 6:27 AM EDT 8:24 PM EDT
Nautical Twilight 5:58 AM EDT 8:53 PM EDT
Astronomical Twilight 5:28 AM EDT 9:22 PM EDT
Moon 5:24 PM EDT (8/11) 3:22 AM EDT (8/11)
Length of Visible Light 13h 57m
Length of Day
13h 08m
Waxing Gibbous, 87% of the Moon is Illuminated
Aug 11
Waxing Gibbous
Aug 15
Full
Aug 23
Last Quarter
Aug 30
New
Sep 5
First Quarter

Hourly Weather History & Observations

Time (EDT) Temp. Heat Index Dew Point Humidity Pressure Visibility Wind Dir Wind Speed Gust Speed Precip Events Conditions
12:53 AM 82.9 °F 90.2 °F 75.0 °F 77% 30.03 in 10.0 mi Calm Calm - N/A   Clear
1:53 AM 82.0 °F 89.4 °F 75.9 °F 82% 30.02 in 10.0 mi WSW 3.5 mph - N/A   Clear
2:53 AM 82.0 °F 90.2 °F 77.0 °F 85% 30.01 in 10.0 mi WSW 3.5 mph - N/A   Clear
3:53 AM 82.0 °F 89.4 °F 75.9 °F 82% 29.99 in 10.0 mi SSW 3.5 mph - N/A   Clear
4:53 AM 81.0 °F 87.3 °F 75.9 °F 85% 29.99 in 10.0 mi West 3.5 mph - N/A   Clear
5:53 AM 81.0 °F 87.3 °F 75.9 °F 85% 29.97 in 10.0 mi SW 3.5 mph - N/A   Clear
6:53 AM 81.0 °F 87.9 °F 77.0 °F 88% 29.99 in 10.0 mi WSW 3.5 mph - N/A   Clear
7:53 AM 82.9 °F 92.8 °F 78.1 °F 85% 30.01 in 10.0 mi West 4.6 mph - N/A   Clear
8:53 AM 84.9 °F 95.3 °F 77.0 °F 77% 30.02 in 10.0 mi West 4.6 mph - N/A   Clear
9:53 AM 88.0 °F 98.5 °F 75.9 °F 67% 30.04 in 10.0 mi WNW 8.1 mph - N/A   Scattered Clouds
10:53 AM 90.0 °F 100.2 °F 75.0 °F 61% 30.05 in 10.0 mi West 6.9 mph - N/A   Partly Cloudy
11:53 AM 90.0 °F 97.9 °F 73.0 °F 57% 30.05 in 10.0 mi WSW 5.8 mph - N/A   Scattered Clouds
12:53 PM 93.9 °F 103.4 °F 73.0 °F 51% 30.03 in 10.0 mi NW 8.1 mph - N/A   Clear
1:53 PM 91.0 °F 100.4 °F 73.9 °F 57% 30.01 in 10.0 mi WSW 5.8 mph - N/A Thunderstorm Mostly Cloudy
2:37 PM 95.0 °F 105.2 °F 73.9 °F 50% 30.00 in 10.0 mi West 9.2 mph - N/A   Clear
2:43 PM 93.0 °F 103.2 °F 73.9 °F 54% 30.00 in 10.0 mi SSE 11.5 mph - N/A Thunderstorm Thunderstorm
2:53 PM 91.0 °F 102.9 °F 75.9 °F 61% 30.00 in 10.0 mi East 9.2 mph - N/A Thunderstorm Thunderstorm
3:19 PM 87.1 °F 95.4 °F 73.9 °F 65% 30.00 in 10.0 mi NE 6.9 mph - N/A Thunderstorm Overcast
3:42 PM 86.0 °F 96.9 °F 77.0 °F 74% 29.98 in 10.0 mi East 9.2 mph - 0.00 in Rain , Thunderstorm Light Thunderstorms and Rain
3:53 PM 84.9 °F 95.3 °F 77.0 °F 77% 29.99 in 10.0 mi East 6.9 mph - 0.00 in Rain Light Rain
4:18 PM 86.0 °F 96.0 °F 75.9 °F 72% 30.00 in 10.0 mi North - - 0.00 in Thunderstorm Mostly Cloudy
4:25 PM 82.0 °F 88.6 °F 75.0 °F 79% 30.00 in 2.5 mi WNW 13.8 mph 21.9 mph 0.10 in Rain , Thunderstorm Light Rain
4:29 PM 82.0 °F 89.4 °F 75.9 °F 82% 30.02 in 1.2 mi West 15.0 mph 24.2 mph 0.29 in Rain Heavy Rain
4:31 PM 81.0 °F 87.3 °F 75.9 °F 85% 30.02 in 0.8 mi West 23.0 mph 31.1 mph 0.39 in Rain Heavy Rain
4:38 PM 79.0 °F - 75.0 °F 88% 30.03 in 0.5 mi WNW 13.8 mph 31.1 mph 0.61 in Fog , Rain , Thunderstorm Heavy Rain
4:43 PM 79.0 °F - 75.9 °F 90% 30.03 in 1.0 mi West 10.4 mph - 0.69 in Rain , Thunderstorm Heavy Rain
4:51 PM 78.8 °F - 75.2 °F 89% 30.04 in 0.8 mi WNW 10.4 mph - 0.95 in Rain , Thunderstorm Heavy Thunderstorms and Rain
4:53 PM 78.1 °F - 75.9 °F 93% 30.04 in 0.8 mi West 11.5 mph - 1.01 in Rain , Thunderstorm Heavy Thunderstorms and Rain
5:21 PM 77.0 °F - 75.0 °F 94% 30.01 in 1.2 mi West 5.8 mph - 0.77 in Rain , Thunderstorm Heavy Thunderstorms and Rain
5:26 PM 77.0 °F - 75.0 °F 94% 30.01 in 3.0 mi WSW 5.8 mph - 0.79 in Rain , Thunderstorm Thunderstorms and Rain
5:30 PM 78.1 °F - 75.0 °F 90% 30.01 in 3.0 mi SSW 4.6 mph - 0.80 in Rain , Thunderstorm Rain
5:48 PM 78.8 °F - 75.2 °F 89% 30.00 in 8.0 mi SSE 6.9 mph - 0.83 in Rain , Thunderstorm Light Thunderstorms and Rain
5:53 PM 78.1 °F - 75.0 °F 90% 30.00 in 9.0 mi South 4.6 mph - 0.83 in Rain , Thunderstorm Light Thunderstorms and Rain
6:09 PM 78.1 °F - 75.0 °F 90% 30.00 in 10.0 mi South 8.1 mph - 0.00 in Rain Light Rain
6:53 PM 79.0 °F - 75.0 °F 88% 30.00 in 10.0 mi SE 4.6 mph - 0.03 in Rain Light Rain
7:53 PM 79.0 °F - 75.0 °F 88% 30.00 in 10.0 mi South 3.5 mph - 0.01 in Rain Light Rain
8:53 PM 79.0 °F - 75.9 °F 90% 30.01 in 10.0 mi Calm Calm - 0.00 in   Clear
9:53 PM 80.1 °F 85.4 °F 75.9 °F 87% 30.01 in 10.0 mi South 4.6 mph - N/A   Clear
10:53 PM 80.1 °F 85.4 °F 75.9 °F 87% 30.01 in 10.0 mi SSW 4.6 mph - N/A   Clear
11:53 PM 80.1 °F 85.4 °F 75.9 °F 87% 30.00 in 10.0 mi SSW 4.6 mph - N/A   Clear